This is the latest recevied weather packets stored in our database for station/object KJ7HSW. If no packets are shown the sender has not sent any weather packets the latest 1 day(s).
| Time | Temp. | Humidity | Pressure | Rain* | Wind** | Luminosity | Snow |
|---|---|---|---|---|---|---|---|
| 1778032822 | 18.89° C | 69% | 1013.5 hPa | 0 mm | 2.68 m/s, 226° | 40 W/m² | - |
| 1778032519 | 18.89° C | 70% | 1013.4 hPa | 0 mm | 1.34 m/s, 271° | 42 W/m² | - |
| 1778032216 | 19.44° C | 69% | 1013.5 hPa | 0 mm | 1.34 m/s, 234° | 43 W/m² | - |
| 1778031913 | 19.44° C | 69% | 1013.2 hPa | 0 mm | 1.34 m/s, 252° | 69 W/m² | - |
| 1778031609 | 19.44° C | 68% | 1013.4 hPa | 0 mm | 0.89 m/s, 214° | 46 W/m² | - |
| 1778031308 | 19.44° C | 67% | 1013.2 hPa | 0 mm | 0.89 m/s, 278° | 50 W/m² | - |
| 1778031004 | 20° C | 67% | 1013.2 hPa | 0 mm | 1.34 m/s, 290° | 80 W/m² | - |
| 1778030700 | 20° C | 67% | 1013.3 hPa | 0 mm | 0.89 m/s, 248° | 96 W/m² | - |
| 1778030397 | 20° C | 66% | 1013.2 hPa | 0 mm | 3.13 m/s, 217° | 97 W/m² | - |
| 1778030094 | 20° C | 67% | 1013.3 hPa | 0 mm | 1.34 m/s, 254° | 56 W/m² | - |
| 1778029791 | 20° C | 67% | 1013.1 hPa | 0 mm | 1.34 m/s, 250° | 53 W/m² | - |
| 1778029490 | 20° C | 66% | 1013.3 hPa | 0 mm | 1.34 m/s, 289° | 56 W/m² | - |
| 1778029185 | 20° C | 67% | 1013.3 hPa | 0 mm | 1.79 m/s, 242° | 57 W/m² | - |
| 1778028884 | 20° C | 66% | 1013.2 hPa | 0 mm | 0 m/s | 57 W/m² | - |
| 1778028578 | 20° C | 65% | 1013.4 hPa | 0 mm | 3.13 m/s, 226° | 58 W/m² | - |
| 1778028277 | 20° C | 65% | 1013.3 hPa | 0 mm | 0.89 m/s, 79° | 59 W/m² | - |
| 1778027972 | 20.56° C | 64% | 1013.2 hPa | 0 mm | 1.34 m/s, 239° | 69 W/m² | - |
| 1778027669 | 20.56° C | 64% | 1013.4 hPa | 0 mm | 0.89 m/s, 189° | 72 W/m² | - |
| 1778027366 | 20.56° C | 63% | 1013.4 hPa | 0 mm | 1.34 m/s, 239° | 73 W/m² | - |
| 1778027062 | 20.56° C | 63% | 1013.3 hPa | 0 mm | 1.34 m/s, 331° | 124 W/m² | - |
| 1778026757 | 21.11° C | 62% | 1013.3 hPa | 0 mm | 3.58 m/s, 249° | 83 W/m² | - |
| 1778026455 | 21.67° C | 63% | 1013.3 hPa | 0 mm | 1.34 m/s, 239° | 117 W/m² | - |
| 1778026152 | 21.67° C | 60% | 1013.3 hPa | 0 mm | 2.24 m/s, 243° | 69 W/m² | - |
| 1778025849 | 21.67° C | 61% | 1013.2 hPa | 0 mm | 1.34 m/s, 264° | 76 W/m² | - |
| 1778025546 | 21.67° C | 60% | 1013.4 hPa | 0 mm | 0.89 m/s, 215° | 95 W/m² | - |
* Rain latest hour (hover to see other rain measurements)
** Current wind speed in m/s (hover to see current wind gust speed)